Rochester/St. Mary\'s Hospita, MN

4:22 AM CDT on October 24, 2017 (GMT -0500)
Rochester/St. Mary\'s Hospita

Weather History for K9MN - August, 2017

Change the Weather History Date:

Sunday, August 13, 2017

  Actual Average (KRST) Record (KRST)
Temperature  
Mean Temperature 64 °F -  
Max Temperature 73 °F 79 °F 96 °F (1918)
Min Temperature 55 °F 58 °F 40 °F (1933)
Degree Days  
Heating Degree Days 2    
Growing Degree Days 14 (Base 50)    
Moisture  
Dew Point 54 °F    
Average Humidity 69    
Maximum Humidity 87    
Minimum Humidity 45    
Precipitation  
Precipitation 0.00 in - - ()
Sea Level Pressure  
Sea Level Pressure 30.02 in    
Wind  
Wind Speed 5 mph (SE)    
Max Wind Speed 14 mph    
Max Gust Speed 21 mph    
Visibility 10 miles    
Events      
Averages and records for this station are not official NWS values.
T = Trace of Precipitation, MM = Missing Value Source: NWS Daily Summary

Daily Weather History Graph

Daily Weather History Graph

Search for Another Location

Airport or City:

Trip Planner

Search our weather history database for the weather conditions in past years. The results will help you decide how hot, cold, wet, or windy it might be!

Date:

Astronomy

Aug. 13, 2017 Rise Set
Actual Time 6:11 AM CDT 8:16 PM CDT
Civil Twilight 5:40 AM CDT 8:48 PM CDT
Nautical Twilight 5:01 AM CDT 9:26 PM CDT
Astronomical Twilight 4:18 AM CDT 10:09 PM CDT
Moon 11:38 PM CDT (8/13) 12:24 PM CDT (8/13)
Length of Visible Light 15h 07m
Length of Day
14h 05m
Waning Gibbous, 65% of the Moon is Illuminated
Aug 13
Waning Gibbous
Aug 14
Last Quarter
Aug 21
New
Aug 29
First Quarter
Sep 6
Full

Hourly Weather History & Observations

Time (CDT) Temp. Dew Point Humidity Pressure Visibility Wind Dir Wind Speed Gust Speed Precip Events Conditions
12:12 AM 60.8 °F 55.0 °F 81% 30.09 in 10.0 mi Calm Calm - N/A   Clear
12:32 AM 61.7 °F 53.2 °F 74% 30.09 in 10.0 mi Calm Calm - N/A   Clear
12:52 AM 60.8 °F 54.5 °F 80% 30.10 in 10.0 mi Calm Calm - N/A   Clear
1:12 AM 60.3 °F 53.8 °F 79% 30.09 in 10.0 mi Calm Calm - N/A   Clear
1:32 AM 60.1 °F 51.1 °F 72% 30.09 in 10.0 mi South 3.5 mph - N/A   Clear
1:52 AM 60.1 °F 50.2 °F 70% 30.08 in 10.0 mi Calm Calm - N/A   Clear
2:12 AM 58.1 °F 54.3 °F 87% 30.08 in 10.0 mi Calm Calm - N/A   Clear
2:32 AM 59.0 °F 53.1 °F 81% 30.08 in 10.0 mi Calm Calm - N/A   Clear
2:52 AM 57.9 °F 51.8 °F 80% 30.07 in 10.0 mi ESE 3.5 mph - N/A   Clear
3:12 AM 57.4 °F 52.0 °F 82% 30.07 in 10.0 mi East 3.5 mph - N/A   Clear
3:32 AM 57.2 °F 51.8 °F 82% 30.07 in 10.0 mi SE 5.8 mph - N/A   Clear
3:52 AM 58.1 °F 50.9 °F 77% 30.07 in 10.0 mi SE 3.5 mph - N/A   Clear
4:12 AM 57.2 °F 51.4 °F 81% 30.07 in 10.0 mi Calm Calm - N/A   Clear
4:32 AM 56.5 °F 51.3 °F 83% 30.07 in 10.0 mi SE 4.6 mph - N/A   Clear
4:52 AM 56.7 °F 50.9 °F 81% 30.06 in 10.0 mi ESE 3.5 mph - N/A   Clear
5:12 AM 56.7 °F 50.9 °F 81% 30.06 in 10.0 mi SE 6.9 mph - N/A   Clear
5:32 AM 57.0 °F 50.9 °F 80% 30.06 in 10.0 mi SE 4.6 mph - N/A   Clear
5:52 AM 56.3 °F 51.1 °F 83% 30.07 in 10.0 mi SE 4.6 mph - N/A   Clear
6:12 AM 55.9 °F 50.9 °F 83% 30.07 in 10.0 mi SE 8.1 mph - N/A   Clear
6:32 AM 56.7 °F 50.4 °F 79% 30.07 in 10.0 mi SE 9.2 mph - N/A   Mostly Cloudy
6:52 AM 56.5 °F 50.5 °F 80% 30.07 in 10.0 mi SE 5.8 mph - N/A   Scattered Clouds
7:12 AM 56.5 °F 50.4 °F 80% 30.06 in 10.0 mi SE 6.9 mph - N/A   Clear
7:32 AM 57.2 °F 50.9 °F 79% 30.06 in 10.0 mi ESE 6.9 mph - N/A   Clear
7:52 AM 58.1 °F 51.1 °F 77% 30.06 in 10.0 mi ESE 6.9 mph - N/A   Clear
8:11 AM 59.5 °F 51.8 °F 76% 30.06 in 10.0 mi SE 3.5 mph - N/A   Clear
8:32 AM 62.6 °F 52.7 °F 70% 30.06 in 10.0 mi SSE 5.8 mph - N/A   Scattered Clouds
8:52 AM 63.9 °F 52.7 °F 67% 30.06 in 10.0 mi SSE 4.6 mph - N/A   Scattered Clouds
9:12 AM 65.5 °F 52.9 °F 64% 30.06 in 10.0 mi SSE 5.8 mph - N/A   Scattered Clouds
9:32 AM 67.1 °F 53.6 °F 62% 30.06 in 10.0 mi South 6.9 mph - N/A   Scattered Clouds
9:52 AM 68.9 °F 53.1 °F 57% 30.05 in 10.0 mi SSE 8.1 mph - N/A   Clear
10:12 AM 68.9 °F 53.6 °F 58% 30.05 in 10.0 mi SSE 9.2 mph - N/A   Clear
10:32 AM 69.4 °F 53.4 °F 57% 30.05 in 10.0 mi SSE 6.9 mph - N/A   Clear
10:52 AM 70.7 °F 51.8 °F 51% 30.05 in 10.0 mi SSE 10.4 mph - N/A   Clear
11:12 AM 72.0 °F 50.5 °F 47% 30.04 in 10.0 mi SSE 8.1 mph 17.3 mph N/A   Clear
11:32 AM 71.2 °F 51.8 °F 50% 30.04 in 10.0 mi SE 10.4 mph - N/A   Clear
11:52 AM 71.6 °F 49.5 °F 45% 30.03 in 10.0 mi SSE 10.4 mph 18.4 mph N/A   Clear
12:12 PM 71.8 °F 50.7 °F 47% 30.03 in 10.0 mi SSE 10.4 mph 19.6 mph N/A   Clear
12:32 PM 72.3 °F 50.4 °F 46% 30.03 in 10.0 mi SE 13.8 mph 20.7 mph N/A   Clear
12:52 PM 72.1 °F 52.0 °F 49% 30.03 in 10.0 mi SSE 9.2 mph 19.6 mph N/A   Scattered Clouds
1:12 PM 71.8 °F 52.5 °F 51% 30.03 in 10.0 mi SSE 5.8 mph - N/A   Mostly Cloudy
1:32 PM 71.2 °F 53.8 °F 54% 30.04 in 10.0 mi South 11.5 mph - N/A   Mostly Cloudy
1:52 PM 71.2 °F 55.0 °F 56% 30.03 in 10.0 mi SE 9.2 mph - N/A   Mostly Cloudy
2:12 PM 71.1 °F 54.5 °F 56% 30.03 in 10.0 mi South 8.1 mph - N/A   Mostly Cloudy
2:32 PM 71.6 °F 54.5 °F 55% 30.02 in 10.0 mi SE 8.1 mph 16.1 mph N/A   Scattered Clouds
2:52 PM 72.1 °F 55.0 °F 55% 30.02 in 10.0 mi SSE 9.2 mph 18.4 mph N/A   Clear
3:12 PM 72.0 °F 55.0 °F 55% 30.01 in 10.0 mi SE 11.5 mph 16.1 mph N/A   Clear
3:32 PM 71.6 °F 55.4 °F 57% 30.00 in 10.0 mi SSE 9.2 mph 17.3 mph N/A   Clear
3:52 PM 71.1 °F 55.6 °F 58% 30.00 in 10.0 mi SE 12.7 mph 18.4 mph N/A   Scattered Clouds
4:12 PM 72.0 °F 56.5 °F 58% 29.99 in 10.0 mi SSE 8.1 mph - N/A   Mostly Cloudy
4:32 PM 72.3 °F 55.9 °F 56% 29.99 in 10.0 mi South 5.8 mph 9.2 mph N/A   Scattered Clouds
4:52 PM 72.0 °F 56.3 °F 58% 29.98 in 10.0 mi South 6.9 mph - N/A   Scattered Clouds
5:12 PM 71.8 °F 55.6 °F 57% 29.98 in 10.0 mi SSE 10.4 mph - N/A   Mostly Cloudy
5:32 PM 70.7 °F 56.3 °F 60% 29.97 in 10.0 mi SSE 10.4 mph - N/A   Overcast
5:52 PM 70.3 °F 56.7 °F 62% 29.96 in 10.0 mi SSE 8.1 mph - N/A   Overcast
6:12 PM 69.8 °F 56.7 °F 63% 29.95 in 10.0 mi SSE 4.6 mph 17.3 mph N/A   Mostly Cloudy
6:32 PM 69.6 °F 56.8 °F 64% 29.95 in 10.0 mi SE 11.5 mph 18.4 mph N/A   Overcast
6:52 PM 69.3 °F 56.7 °F 64% 29.94 in 10.0 mi SE 9.2 mph - N/A   Overcast
7:12 PM 68.9 °F 57.4 °F 67% 29.94 in 10.0 mi ESE 9.2 mph - N/A   Overcast
7:32 PM 68.4 °F 57.7 °F 69% 29.93 in 10.0 mi ESE 6.9 mph - N/A   Scattered Clouds
7:52 PM 67.6 °F 58.1 °F 71% 29.93 in 10.0 mi SE 8.1 mph - N/A   Clear
8:12 PM 67.1 °F 58.1 °F 73% 29.93 in 10.0 mi ESE 6.9 mph - N/A   Clear
8:32 PM 66.2 °F 58.3 °F 76% 29.93 in 10.0 mi SE 6.9 mph - N/A   Clear
8:52 PM 65.7 °F 58.5 °F 78% 29.93 in 10.0 mi ESE 6.9 mph - N/A   Mostly Cloudy
9:12 PM 65.3 °F 58.3 °F 78% 29.93 in 10.0 mi ESE 6.9 mph - N/A   Mostly Cloudy
9:32 PM 64.4 °F 58.5 °F 81% 29.93 in 10.0 mi ESE 6.9 mph - N/A   Scattered Clouds
9:52 PM 64.0 °F 58.5 °F 82% 29.93 in 10.0 mi SE 8.1 mph - N/A   Scattered Clouds
10:12 PM 64.0 °F 58.3 °F 82% 29.93 in 10.0 mi SE 8.1 mph - N/A   Mostly Cloudy
10:32 PM 64.0 °F 57.2 °F 78% 29.94 in 10.0 mi SE 6.9 mph - N/A   Mostly Cloudy
10:51 PM 64.0 °F 56.8 °F 77% 29.94 in 10.0 mi ESE 8.1 mph - N/A   Mostly Cloudy
11:12 PM 63.7 °F 56.5 °F 77% 29.93 in 10.0 mi SE 9.2 mph - N/A   Overcast
11:32 PM 63.5 °F 56.8 °F 79% 29.92 in 10.0 mi ESE 5.8 mph - N/A   Overcast
11:51 PM 63.5 °F 57.2 °F 80% 29.93 in 10.0 mi SSE 6.9 mph - N/A   Overcast